ANDESITE (45726 NORAD) Tracking and Keplerian Element Data

This shows tracking and keplerian element data for the satellite.

Feedback or suggestion? Click here.




ElementValue
Catalog45726
NameANDESITE
Epoch Orbit35
Epoch Day185.09702358
Epoch Year2020
RAAN4.9311
Inclination97.7096
Eccentricity0.0013263
Argument of Perigee231.4908
Mean Anonmoly128.5129
Mean Motion14.91974479
Decay Rate-4.29E-06
L11 45726U 20037D 20185.09702358 -.00000429 00000-0 -36846-4 0 9994
L22 45726 97.7096 4.9311 0013263 231.4908 128.5129 14.91974479 355

Live tracking and technical data element details for ANDESITE (NORAD 45726). ANDESITE can be tracked NOW for your location showing map with azimuth and elevation plus other details from your city location.

Track the satellite on the map from your city or location and see movement details for azimuth, elevation, latitude, longitude, range, height, and movement on the map or in text.







IsCatalogInMostPopularTable: catalog: 45726, numindb: 3
Update: records affected: 1



GetName: 45726 ANDESITE

Hit Count: updated at: Sat, 04 Jul 2020 02:20:05 GMT